TimeEDT,TemperatureF,Dew PointF,Humidity,Sea Level PressureIn,VisibilityMPH,Wind Direction,Wind SpeedMPH,Gust SpeedMPH,PrecipitationIn,Events,Conditions,WindDirDegrees,DateUTC
12:15 AM,28.4,24.8,86,29.89,10.0,West,5.8,-,N/A,,Clear,280,2013-10-23 04:15:00
12:35 AM,28.4,24.8,86,29.89,10.0,West,5.8,-,N/A,,Clear,280,2013-10-23 04:35:00
12:55 AM,28.4,24.8,86,29.89,10.0,West,4.6,-,N/A,,Clear,280,2013-10-23 04:55:00
1:15 AM,28.4,24.8,86,29.89,10.0,WNW,5.8,-,N/A,,Clear,290,2013-10-23 05:15:00
1:35 AM,28.4,24.8,86,29.89,10.0,WNW,4.6,-,N/A,,Clear,300,2013-10-23 05:35:00
1:55 AM,28.4,24.8,86,29.89,10.0,WNW,5.8,-,N/A,,Clear,290,2013-10-23 05:55:00
2:15 AM,28.4,24.8,86,29.88,10.0,WNW,4.6,-,N/A,,Clear,290,2013-10-23 06:15:00
2:35 AM,28.4,24.8,86,29.88,10.0,West,6.9,-,N/A,,Partly Cloudy,280,2013-10-23 06:35:00
2:55 AM,28.4,24.8,86,29.88,10.0,West,5.8,-,N/A,,Clear,280,2013-10-23 06:55:00
3:15 AM,28.4,24.8,86,29.88,10.0,WNW,5.8,-,N/A,,Partly Cloudy,290,2013-10-23 07:15:00
3:35 AM,28.4,24.8,86,29.87,10.0,WNW,9.2,-,N/A,,Scattered Clouds,290,2013-10-23 07:35:00
3:55 AM,28.4,24.8,86,29.87,10.0,WNW,6.9,-,N/A,,Partly Cloudy,290,2013-10-23 07:55:00
4:15 AM,28.4,24.8,86,29.86,10.0,West,5.8,-,N/A,,Clear,280,2013-10-23 08:15:00
4:35 AM,28.4,24.8,86,29.86,10.0,WNW,4.6,-,N/A,,Clear,290,2013-10-23 08:35:00
4:55 AM,28.4,24.8,86,29.86,10.0,WNW,5.8,-,N/A,,Mostly Cloudy,290,2013-10-23 08:55:00
5:15 AM,28.4,24.8,86,29.86,10.0,West,3.5,-,N/A,,Overcast,280,2013-10-23 09:15:00
5:35 AM,28.4,26.6,93,29.85,10.0,West,3.5,-,N/A,,Overcast,280,2013-10-23 09:35:00
5:55 AM,28.4,26.6,93,29.85,10.0,West,5.8,-,N/A,,Overcast,280,2013-10-23 09:55:00
6:15 AM,30.2,26.6,86,29.85,10.0,WNW,6.9,-,N/A,,Mostly Cloudy,290,2013-10-23 10:15:00
6:35 AM,28.4,24.8,86,29.85,10.0,WNW,6.9,-,N/A,,Scattered Clouds,290,2013-10-23 10:35:00
6:55 AM,28.4,24.8,86,29.85,10.0,WNW,6.9,-,N/A,,Partly Cloudy,290,2013-10-23 10:55:00
7:15 AM,28.4,24.8,86,29.85,10.0,West,6.9,-,N/A,,Clear,280,2013-10-23 11:15:00
7:35 AM,28.4,24.8,86,29.86,10.0,West,6.9,-,N/A,,Clear,280,2013-10-23 11:35:00
7:55 AM,28.4,26.6,93,29.86,10.0,WNW,8.1,-,N/A,,Clear,290,2013-10-23 11:55:00
8:15 AM,28.4,26.6,93,29.86,10.0,WNW,8.1,-,N/A,,Clear,290,2013-10-23 12:15:00
8:35 AM,28.4,24.8,86,29.86,10.0,West,8.1,-,N/A,,Clear,280,2013-10-23 12:35:00
8:55 AM,30.2,26.6,86,29.86,10.0,West,6.9,-,N/A,,Clear,280,2013-10-23 12:55:00
9:15 AM,30.2,26.6,86,29.86,10.0,West,6.9,-,N/A,,Clear,270,2013-10-23 13:15:00
9:35 AM,32.0,26.6,80,29.87,10.0,West,9.2,-,N/A,,Clear,270,2013-10-23 13:35:00
9:55 AM,33.8,26.6,75,29.86,10.0,WNW,10.4,-,N/A,,Clear,290,2013-10-23 13:55:00
10:15 AM,33.8,26.6,75,29.86,10.0,WNW,9.2,-,N/A,,Clear,300,2013-10-23 14:15:00
10:35 AM,35.6,28.4,75,29.86,10.0,WNW,12.7,-,N/A,,Clear,290,2013-10-23 14:35:00
10:55 AM,37.4,28.4,70,29.85,10.0,West,15.0,-,N/A,,Clear,280,2013-10-23 14:55:00
11:15 AM,39.2,28.4,65,29.85,10.0,WNW,13.8,17.3,N/A,,Clear,290,2013-10-23 15:15:00
11:35 AM,39.2,28.4,65,29.85,10.0,WNW,13.8,-,N/A,,Clear,290,2013-10-23 15:35:00
11:55 AM,41.0,28.4,61,29.85,10.0,WNW,16.1,20.7,N/A,,Clear,290,2013-10-23 15:55:00
12:15 PM,41.0,26.6,57,29.84,10.0,WNW,13.8,19.6,N/A,,Clear,290,2013-10-23 16:15:00
12:35 PM,41.0,24.8,53,29.85,10.0,WNW,15.0,25.3,N/A,,Scattered Clouds,290,2013-10-23 16:35:00
12:55 PM,42.8,26.6,53,29.85,10.0,WNW,13.8,23.0,N/A,,Mostly Cloudy,300,2013-10-23 16:55:00
1:15 PM,39.2,26.6,61,29.85,10.0,WNW,12.7,21.9,N/A,,Mostly Cloudy,300,2013-10-23 17:15:00
1:35 PM,41.0,28.4,61,29.84,10.0,NW,15.0,19.6,N/A,,Mostly Cloudy,310,2013-10-23 17:35:00
1:55 PM,41.0,26.6,57,29.84,10.0,NW,12.7,18.4,N/A,,Mostly Cloudy,320,2013-10-23 17:55:00
2:15 PM,42.8,23.0,46,29.84,10.0,NW,16.1,20.7,N/A,,Scattered Clouds,320,2013-10-23 18:15:00
2:35 PM,41.0,23.0,49,29.84,10.0,WNW,13.8,-,N/A,,Mostly Cloudy,290,2013-10-23 18:35:00
2:55 PM,41.0,24.8,53,29.85,10.0,WNW,13.8,26.5,N/A,,Overcast,300,2013-10-23 18:55:00
3:15 PM,37.4,28.4,70,29.85,10.0,West,13.8,19.6,N/A,,Overcast,270,2013-10-23 19:15:00
3:35 PM,39.2,28.4,65,29.84,10.0,West,10.4,-,N/A,,Mostly Cloudy,280,2013-10-23 19:35:00
3:55 PM,42.8,26.6,53,29.84,10.0,West,15.0,-,N/A,,Scattered Clouds,280,2013-10-23 19:55:00
4:15 PM,37.4,28.4,70,29.85,10.0,WNW,8.1,-,N/A,,Mostly Cloudy,300,2013-10-23 20:15:00
4:35 PM,41.0,26.6,57,29.85,10.0,NW,11.5,-,N/A,,Mostly Cloudy,310,2013-10-23 20:35:00
4:55 PM,42.8,21.2,42,29.86,10.0,NNW,10.4,21.9,N/A,,Mostly Cloudy,330,2013-10-23 20:55:00
5:15 PM,42.8,26.6,53,29.86,10.0,NNW,10.4,19.6,N/A,,Overcast,330,2013-10-23 21:15:00
5:35 PM,41.0,21.2,45,29.87,10.0,NNW,12.7,19.6,N/A,,Mostly Cloudy,330,2013-10-23 21:35:00
5:55 PM,41.0,21.2,45,29.87,10.0,NW,12.7,19.6,N/A,,Mostly Cloudy,320,2013-10-23 21:55:00
6:15 PM,39.2,21.2,49,29.88,10.0,NNW,13.8,17.3,N/A,,Mostly Cloudy,330,2013-10-23 22:15:00
6:35 PM,39.2,21.2,49,29.88,10.0,NW,9.2,16.1,N/A,,Overcast,320,2013-10-23 22:35:00
6:55 PM,37.4,21.2,52,29.88,10.0,NW,8.1,-,N/A,,Overcast,310,2013-10-23 22:55:00
7:15 PM,37.4,21.2,52,29.89,10.0,NW,5.8,-,N/A,,Mostly Cloudy,310,2013-10-23 23:15:00
7:35 PM,35.6,21.2,56,29.89,10.0,NW,3.5,-,N/A,,Partly Cloudy,310,2013-10-23 23:35:00
7:55 PM,33.8,21.2,60,29.90,10.0,NW,3.5,-,N/A,,Mostly Cloudy,310,2013-10-23 23:55:00
8:15 PM,33.8,21.2,60,29.90,10.0,WNW,3.5,-,N/A,,Overcast,290,2013-10-24 00:15:00
8:35 PM,33.8,21.2,60,29.90,10.0,West,5.8,-,N/A,,Overcast,280,2013-10-24 00:35:00
8:55 PM,33.8,23.0,65,29.90,10.0,WNW,5.8,-,N/A,,Overcast,290,2013-10-24 00:55:00
9:15 PM,33.8,24.8,70,29.90,10.0,WNW,5.8,-,N/A,,Overcast,290,2013-10-24 01:15:00
9:35 PM,33.8,24.8,70,29.90,10.0,West,4.6,-,N/A,,Overcast,280,2013-10-24 01:35:00
9:55 PM,35.6,24.8,65,29.90,10.0,West,4.6,-,N/A,,Overcast,270,2013-10-24 01:55:00
10:15 PM,33.8,24.8,70,29.89,10.0,West,6.9,-,N/A,,Mostly Cloudy,270,2013-10-24 02:15:00
10:35 PM,33.8,24.8,70,29.89,10.0,West,6.9,-,N/A,,Scattered Clouds,280,2013-10-24 02:35:00
10:55 PM,33.8,24.8,70,29.90,10.0,West,5.8,-,N/A,,Clear,270,2013-10-24 02:55:00
11:15 PM,30.2,23.0,75,29.90,10.0,West,6.9,-,N/A,,Clear,260,2013-10-24 03:15:00
11:35 PM,30.2,24.8,80,29.90,10.0,West,5.8,-,N/A,,Clear,270,2013-10-24 03:35:00
11:55 PM,30.2,24.8,80,29.89,10.0,West,6.9,-,N/A,,Clear,270,2013-10-24 03:55:00